Weather in Demushkino

Russia / Ryazan Oblast     54°25′41″N   42°08′03″E
temp.,
°C
wind,
m/s
gust,
m/s
humid.,
%
clouds,
%
prec.,
mm/h
press.,
hPa
HPBL,
m
1 march, mon
mon100:00−13nne129594 0.0 102021
03:00−14nnw229684 0.0 102220
06:00−14nw229743 0.0 102320
09:00−12wnw229541 0.0 1025102
12:00−7w239087 0.0 1024302
15:00−5wsw469182 0.0 1023399
18:00−6wsw4109599 0.0 1021302
21:00−3wsw51193100 0.1 1019642
2 march, tue
tue200:00−1wsw71294100 0.1 1015503
03:00+1wsw61394100 0.3 1013622
06:00+1wsw61294100 0.1 1009624
09:00+1w61298100 0.1 1008634
12:00+1wnw61199100 0.2 1005658
15:00+1wnw499899 0.4 1006634
18:00−1nw4109097 0.3 1006328
21:00−3nw4119198 0.3 1007335
3 march, wed
wed300:00−5wnw4109361 0.0 1007240
03:00−3wnw5119571 0.1 1008497
06:00−4nw6119299 0.4 1008611
09:00−7nw6129092 0.5 1011587
12:00−5nw61087100 0.1 1012765
15:00−3nw6107997 0.1 1013971
18:00−5w399330 0.0 1012305
21:00−3w5119364 0.1 1013595
4 march, thu
thu400:00−3w5129399 0.1 1011493
03:00−5wsw5119496 0.2 1010323
06:00−4wsw5129390 0.0 1008482
09:00−2sw7148995 0.0 1005685
12:00+1wsw81589100 0.1 10021103
15:00+1wsw81588100 0.1 10001201
18:000wsw81594100 0.1 9981022
21:000w81497100 0.8 997951
5 march, fri
fri500:000wnw71295100 0.4 998817
03:00−5wnw369588 0.6 1002132
06:00−9nw34938 0.0 100684
09:00−7nw25914 0.0 1009187
12:00−4wnw248614 0.0 1010475
15:00−3wnw248036 0.0 1012721
18:00−7wnw128866 0.0 101321
21:00−9w008953 0.0 101421